TimeEDT,TemperatureF,Dew PointF,Humidity,Sea Level PressureIn,VisibilityMPH,Wind Direction,Wind SpeedMPH,Gust SpeedMPH,PrecipitationIn,Events,Conditions,WindDirDegrees,DateUTC
12:54 AM,42.1,37.9,85,30.25,10.0,Calm,Calm,-,N/A,,Clear,0,2013-05-06 04:54:00
1:54 AM,42.1,39.0,89,30.23,10.0,Calm,Calm,-,N/A,,Clear,0,2013-05-06 05:54:00
2:23 AM,41.0,37.4,87,30.22,1.5,Calm,Calm,-,N/A,,Scattered Clouds,0,2013-05-06 06:23:00
2:26 AM,41.0,37.4,87,30.22,0.8,Calm,Calm,-,N/A,,Mist,0,2013-05-06 06:26:00
2:33 AM,39.2,37.4,93,30.22,1.2,Calm,Calm,-,N/A,,Scattered Clouds,0,2013-05-06 06:33:00
2:37 AM,41.0,37.4,87,30.22,4.0,Calm,Calm,-,N/A,,Scattered Clouds,0,2013-05-06 06:37:00
2:41 AM,41.0,37.4,87,30.22,1.5,Calm,Calm,-,N/A,,Scattered Clouds,0,2013-05-06 06:41:00
2:48 AM,39.2,37.4,93,30.22,1.0,Calm,Calm,-,N/A,,Mist,0,2013-05-06 06:48:00
2:54 AM,37.9,37.0,97,30.22,0.8,Calm,Calm,-,N/A,,Mist,0,2013-05-06 06:54:00
3:06 AM,37.4,37.4,100,30.22,0.2,Calm,Calm,-,N/A,Fog,Fog,0,2013-05-06 07:06:00
3:19 AM,39.2,37.4,93,30.22,2.0,Calm,Calm,-,0.00,Rain,Light Rain,0,2013-05-06 07:19:00
3:27 AM,39.2,37.4,93,30.21,4.0,Calm,Calm,-,0.00,,Overcast,0,2013-05-06 07:27:00
3:37 AM,37.4,35.6,93,30.21,1.8,Calm,Calm,-,0.00,,Overcast,0,2013-05-06 07:37:00
3:40 AM,37.4,35.6,93,30.21,0.8,Calm,Calm,-,0.00,,Mist,0,2013-05-06 07:40:00
3:54 AM,37.9,36.0,93,30.22,0.5,Calm,Calm,-,0.00,Fog-Rain,Light Rain,0,2013-05-06 07:54:00
4:41 AM,35.6,33.8,93,30.22,1.2,Calm,Calm,-,0.00,,Mostly Cloudy,0,2013-05-06 08:41:00
4:43 AM,35.6,33.8,93,30.22,4.0,Calm,Calm,-,0.00,,Mostly Cloudy,0,2013-05-06 08:43:00
4:50 AM,35.6,33.8,93,30.22,1.8,Calm,Calm,-,0.00,,Scattered Clouds,0,2013-05-06 08:50:00
4:54 AM,37.0,35.1,93,30.22,0.8,Calm,Calm,-,0.00,,Mist,0,2013-05-06 08:54:00
5:00 AM,35.6,33.8,93,30.22,1.0,Calm,Calm,-,N/A,,Mist,0,2013-05-06 09:00:00
5:13 AM,35.6,33.8,93,30.22,0.2,Calm,Calm,-,N/A,Fog,Fog,0,2013-05-06 09:13:00
5:23 AM,35.6,33.8,93,30.23,1.5,SSW,3.5,-,0.00,,Overcast,210,2013-05-06 09:23:00
5:25 AM,35.6,33.8,93,30.23,4.0,SSW,3.5,-,0.00,,Overcast,210,2013-05-06 09:25:00
5:40 AM,35.6,33.8,93,30.23,7.0,Calm,Calm,-,0.00,,Overcast,0,2013-05-06 09:40:00
5:49 AM,35.6,33.8,93,30.23,0.8,Calm,Calm,-,0.00,,Mist,0,2013-05-06 09:49:00
5:54 AM,36.0,34.0,93,30.23,0.5,Calm,Calm,-,0.00,Fog,Fog,0,2013-05-06 09:54:00
6:16 AM,35.6,33.8,93,30.24,0.2,Calm,Calm,-,0.00,Fog-Rain,Light Rain,0,2013-05-06 10:16:00
6:41 AM,35.6,35.6,100,30.25,1.2,Calm,Calm,-,0.00,,Mostly Cloudy,0,2013-05-06 10:41:00
6:47 AM,37.4,37.4,100,30.25,3.0,Calm,Calm,-,0.00,,Mostly Cloudy,0,2013-05-06 10:47:00
6:54 AM,37.9,37.0,97,30.25,4.0,Calm,Calm,-,0.00,,Scattered Clouds,0,2013-05-06 10:54:00
7:54 AM,43.0,41.0,93,30.27,8.0,Calm,Calm,-,N/A,,Partly Cloudy,0,2013-05-06 11:54:00
8:10 AM,44.6,42.8,93,30.27,9.0,Calm,Calm,-,N/A,,Mostly Cloudy,0,2013-05-06 12:10:00
8:54 AM,48.9,43.0,80,30.28,10.0,Calm,Calm,-,N/A,,Overcast,0,2013-05-06 12:54:00
9:55 AM,52.0,43.0,71,30.27,-9999.0,Calm,Calm,-,N/A,,Unknown,0,2013-05-06 13:55:00
10:25 AM,53.6,42.8,67,30.27,10.0,Calm,Calm,-,N/A,,Overcast,0,2013-05-06 14:25:00
10:54 AM,55.0,44.1,67,30.27,10.0,Variable,3.5,-,N/A,,Overcast,0,2013-05-06 14:54:00
11:25 AM,55.4,44.6,67,30.25,10.0,Variable,3.5,-,N/A,,Partly Cloudy,0,2013-05-06 15:25:00
11:54 AM,57.9,45.0,62,30.25,10.0,West,4.6,-,N/A,,Clear,270,2013-05-06 15:54:00
12:54 PM,62.1,46.0,56,30.21,10.0,Calm,Calm,-,N/A,,Clear,0,2013-05-06 16:54:00
1:54 PM,66.9,48.0,51,30.19,10.0,SE,3.5,-,N/A,,Clear,140,2013-05-06 17:54:00
2:54 PM,69.1,46.0,44,30.16,10.0,Calm,Calm,-,N/A,,Clear,0,2013-05-06 18:54:00
3:54 PM,72.0,46.0,40,30.13,10.0,Calm,Calm,-,N/A,,Clear,0,2013-05-06 19:54:00
4:54 PM,73.0,46.9,39,30.12,10.0,Calm,Calm,-,N/A,,Clear,0,2013-05-06 20:54:00
5:54 PM,72.0,46.9,41,30.11,10.0,SSW,8.1,-,N/A,,Clear,210,2013-05-06 21:54:00
6:54 PM,69.1,48.9,49,30.11,10.0,SSW,8.1,-,N/A,,Clear,200,2013-05-06 22:54:00
7:54 PM,64.9,51.1,61,30.13,10.0,South,8.1,-,N/A,,Clear,190,2013-05-06 23:54:00
8:54 PM,60.1,51.1,72,30.15,10.0,SSW,5.8,-,N/A,,Clear,200,2013-05-07 00:54:00
9:54 PM,57.0,51.1,81,30.17,10.0,SSW,6.9,-,N/A,,Clear,200,2013-05-07 01:54:00
10:54 PM,55.0,50.0,83,30.17,10.0,Calm,Calm,-,N/A,,Clear,0,2013-05-07 02:54:00
11:54 PM,52.0,48.9,89,30.17,10.0,Calm,Calm,-,N/A,,Clear,0,2013-05-07 03:54:00